Location: Albany
(35.0170°S, 117.8920°E)
Time: 02:49:21
(UTC+08:00)

Vanguard 1 - Pass Details

Date: 01 February 2021
Orbit: 649 x 3833 km, 34.2° (Epoch: 25 February)

Event Time Altitude Azimuth Distance (km) Brightness Sun altitude
Rises 19:12:30 0° 341° (NNW) 7,461 14.5 -0.2°
Reaches altitude 10° 19:20:38 10° 357° (N) 5,879 13.8 -1.8°
Maximum altitude 19:29:56 17° 31° (NNE) 4,420 12.9 -3.5°
Drops below altitude 10° 19:36:53 10° 67° (ENE) 4,242 12.6 -4.8°
Enters shadow 19:39:19 - 78° (ENE) 4,462 12.8 -5.3°
Sets 19:41:09 0° 86° (E) 4,720 - -5.6°
